Location: Bussy-Saint-Georges
(48.8410°N, 2.7017°E)
Time: 16:10:45
(UTC+00:00)

Okean-O - Pass Details

Date: 18 October 2021
Orbit: 638 x 640 km, 98.2° (Epoch: 29 November)

Event Time Altitude Azimuth Distance (km) Brightness Sun altitude
Exits shadow 18:55:18 24° 164° (SSE) 1,330 4.0 -20.7°
Maximum altitude 18:57:58 89° 77° (ENE) 648 2.5 -21.2°
Drops below altitude 10° 19:02:26 10° 346° (NNW) 2,045 5.5 -21.9°
Sets 19:04:39 0° 347° (NNW) 2,958 6.4 -22.3°
